CW4713 Weather Reports


Display with metric or nautical units.
time (UTC)temp
F
wind
direction
speed
MPH
gust
MPH
rain 1hr
in
rain 24hr
in
rain mn
in
humidity
%
barometer
mb
20260901023804 55 353 5.0 10.0 0.00 0.43 0.43 66 1002.7
20260901023304 55 355 3.0 8.0 0.00 0.43 0.43 68 1002.6
20260901022804 55 347 4.0 7.0 0.00 0.43 0.43 68 1002.5
20260901022306 54 328 2.0 6.0 0.00 0.43 0.43 68 1002.5
20260901021804 54 332 3.0 7.0 0.00 0.43 0.43 69 1002.5
20260901021304 54 34 2.0 3.0 0.00 0.43 0.43 70 1002.5
20260901020804 54 342 2.0 6.0 0.00 0.43 0.43 70 1002.4
20260901020304 53 58 2.0 7.0 0.00 0.43 0.43 70 1002.4
20260901015804 53 12 1.0 2.0 0.00 0.43 0.43 70 1002.4
20260901015306 53 320 2.0 7.0 0.00 0.43 0.43 70 1002.4
20260901014804 53 47 1.0 5.0 0.00 0.43 0.43 71 1002.3
20260901014304 53 25 1.0 2.0 0.00 0.43 0.43 71 1002.4
20260901013804 53 118 3.0 5.0 0.00 0.43 0.43 71 1002.3
20260901013304 53 5 2.0 7.0 0.00 0.43 0.43 71 1002.3
20260901012804 53 27 2.0 6.0 0.00 0.43 0.43 71 1002.3
20260901012306 53 10 2.0 3.0 0.00 0.43 0.43 71 1002.3
20260901011804 53 72 3.0 8.0 0.00 0.43 0.43 71 1002.3
20260901011304 53 6 3.0 8.0 0.00 0.43 0.43 73 1002.2
20260901010803 52 2 4.0 7.0 0.00 0.43 0.43 74 1002.2
20260901010304 52 333 2.0 7.0 0.00 0.43 0.43 74 1002.1
20260901005804 52 82 3.0 6.0 0.00 0.43 0.43 73 1002.1
20260901005306 52 260 2.0 8.0 0.00 0.43 0.43 74 1002.1
20260901004804 52 31 4.0 8.0 0.00 0.43 0.43 75 1002.1
20260901004304 51 31 5.0 8.0 0.00 0.43 0.43 76 1002.2
20260901003804 51 9 5.0 10.0 0.00 0.43 0.43 76 1002.1
20260901003303 50 357 4.0 8.0 0.00 0.43 0.43 77 1002.1
20260901002804 50 43 3.0 7.0 0.00 0.43 0.43 77 1002.0
20260901002305 50 348 3.0 9.0 0.00 0.43 0.43 76 1002.1
20260901001804 50 27 4.0 8.0 0.00 0.43 0.43 77 1002.1
20260901001304 49 9 5.0 7.0 0.00 0.43 0.43 78 1002.1
20260901000804 49 36 6.0 9.0 0.00 0.43 0.43 78 1002.1
20260901000304 49 0 6.0 9.0 0.00 0.43 0.43 79 1002.1
20260831235804 48 19 5.0 9.0 0.00 0.43 0.43 80 1002.1
20260831235306 49 359 4.0 8.0 0.00 0.43 0.43 81 1002.1
20260831234804 49 357 4.0 7.0 0.00 0.43 0.43 81 1002.0
20260831234304 49 22 6.0 10.0 0.00 0.43 0.43 81 1002.1
20260831233804 49 11 5.0 7.0 0.00 0.43 0.43 81 1002.0
20260831233304 47 42 6.0 10.0 0.00 0.43 0.43 82 1002.0
20260831232804 47 19 5.0 9.0 0.00 0.43 0.43 82 1001.9
20260831232306 47 18 3.0 9.0 0.00 0.43 0.43 83 1001.9
20260831231803 48 61 4.0 9.0 0.00 0.43 0.43 83 1002.0
20260831231304 49 22 3.0 7.0 0.00 0.43 0.43 84 1002.0
20260831230804 49 72 3.0 7.0 0.00 0.43 0.43 85 1001.9
20260831230304 48 352 2.0 8.0 0.00 0.43 0.43 85 1001.9
20260831225804 48 34 3.0 9.0 0.00 0.43 0.43 86 1002.0
20260831225306 47 38 3.0 7.0 0.00 0.43 0.43 87 1002.0
20260831224804 47 34 3.0 9.0 0.00 0.43 0.43 87 1002.0
20260831224304 46 162 2.0 6.0 0.00 0.43 0.43 88 1002.0
20260831223804 46 61 4.0 7.0 0.00 0.43 0.43 89 1002.1
20260831223304 46 30 4.0 7.0 0.00 0.43 0.43 89 1002.1
20260831222803 45 29 3.0 7.0 0.00 0.43 0.43 90 1002.1
20260831222306 45 37 4.0 7.0 0.00 0.43 0.43 90 1002.2
20260831221804 45 24 3.0 6.0 0.00 0.43 0.43 90 1002.2
20260831221304 44 22 4.0 7.0 0.00 0.43 0.43 90 1002.2
20260831220804 44 36 3.0 8.0 0.00 0.43 0.43 90 1002.2
20260831220304 44 58 3.0 7.0 0.00 0.43 0.43 91 1002.2
20260831215804 44 64 3.0 8.0 0.00 0.43 0.43 91 1002.3
20260831215306 44 21 3.0 8.0 0.00 0.43 0.43 91 1002.2
20260831214804 44 34 5.0 8.0 0.00 0.43 0.43 91 1002.3
20260831214304 44 91 3.0 7.0 0.00 0.43 0.43 92 1002.3
20260831213804 44 39 4.0 8.0 0.01 0.43 0.43 92 1002.3
20260831213304 43 48 4.0 7.0 0.01 0.43 0.43 92 1002.4
20260831202804 42 5 5.0 8.0 0.02 0.42 0.42 92 1002.4
20260831202306 42 30 6.0 8.0 0.02 0.42 0.42 92 1002.4
20260831201804 42 352 3.0 8.0 0.02 0.42 0.42 91 1002.4
20260831201304 42 348 5.0 8.0 0.02 0.42 0.42 91 1002.5
20260831200804 42 16 5.0 8.0 0.01 0.41 0.41 91 1002.5
20260831200305 42 45 3.0 8.0 0.01 0.41 0.41 90 1002.4
20260831195804 42 8 5.0 8.0 0.01 0.41 0.41 90 1002.3
20260831195306 42 3 2.0 8.0 0.01 0.41 0.41 90 1002.3
20260831194804 42 332 2.0 7.0 0.01 0.41 0.41 90 1002.4
20260831194304 41 4 5.0 8.0 0.01 0.41 0.41 90 1002.4
20260831193804 41 3 3.0 8.0 0.01 0.41 0.41 89 1002.4
20260831193304 41 319 5.0 7.0 0.01 0.41 0.41 89 1002.4
20260831192305 41 300 3.0 8.0 0.00 0.40 0.40 88 1002.5
20260831191804 41 314 1.0 6.0 0.00 0.40 0.40 88 1002.6
20260831191304 41 323 2.0 7.0 0.00 0.40 0.40 88 1002.6
20260831190804 41 314 3.0 10.0 0.00 0.40 0.40 88 1002.7
20260831190304 41 337 7.0 14.0 0.00 0.40 0.40 87 1002.7
20260831185805 42 308 3.0 8.0 0.00 0.40 0.40 86 1002.7
20260831185306 42 321 5.0 14.0 0.00 0.40 0.40 86 1002.8
20260831184804 42 327 4.0 9.0 0.00 0.40 0.40 85 1002.8
20260831184304 43 310 4.0 10.0 0.00 0.40 0.40 84 1002.8
20260831183803 43 338 5.0 12.0 0.00 0.40 0.40 84 1002.7
20260831183304 44 315 5.0 12.0 0.00 0.40 0.40 82 1002.8
20260831182804 44 316 8.0 14.0 0.00 0.40 0.40 82 1002.6
20260831181804 45 321 8.0 14.0 0.00 0.40 0.40 83 1002.4
20260831181304 45 334 6.0 12.0 0.00 0.40 0.40 83 1002.4
20260831180803 45 332 2.0 6.0 0.00 0.40 0.40 84 1002.3
20260831180304 45 347 4.0 8.0 0.00 0.40 0.40 84 1002.3
20260831175804 44 346 3.0 8.0 0.00 0.40 0.40 85 1002.2
20260831175306 44 30 6.0 10.0 0.00 0.40 0.40 86 1002.2
20260831174804 44 304 0.0 2.0 0.00 0.40 0.40 88 1002.2
20260831174304 44 304 1.0 5.0 0.00 0.40 0.40 88 1002.3
20260831173804 43 77 3.0 8.0 0.00 0.40 0.40 90 1002.2
20260831173304 43 39 3.0 9.0 0.00 0.40 0.40 92 1002.2
20260831172803 43 4 2.0 3.0 0.00 0.40 0.40 93 1002.3
20260831172306 42 99 0.0 3.0 0.00 0.40 0.40 93 1002.4
20260831161804 40 31 3.0 7.0 0.03 0.40 0.40 92 1001.8
20260831161304 40 334 3.0 6.0 0.05 0.40 0.40 92 1001.7
20260831160804 40 5 2.0 3.0 0.07 0.40 0.40 92 1001.7
20260831160304 40 169 1.0 3.0 0.09 0.40 0.40 92 1001.7
20260831155804 40 90 2.0 5.0 0.11 0.40 0.40 92 1002.0
20260831155306 40 50 3.0 8.0 0.12 0.40 0.40 92 1002.2
20260831154804 40 44 2.0 3.0 0.13 0.40 0.40 92 1002.2
20260831154304 40 49 2.0 3.0 0.15 0.40 0.40 92 1002.5
20260831153804 40 315 0.0 3.0 0.16 0.40 0.40 92 1002.8
20260831153304 40 15 2.0 6.0 0.17 0.39 0.39 92 1002.8
20260831152804 40 14 3.0 6.0 0.19 0.39 0.39 92 1002.9
20260831152306 40 44 3.0 7.0 0.20 0.38 0.38 92 1003.2
20260831151804 40 42 5.0 9.0 0.21 0.37 0.37 91 1003.4
20260831151305 40 56 1.0 6.0 0.21 0.35 0.35 91 1003.4
20260831150304 41 39 2.0 7.0 0.19 0.31 0.31 91 1003.6
20260831145804 41 22 2.0 6.0 0.18 0.29 0.29 91 1003.5
20260831145306 41 62 3.0 8.0 0.18 0.28 0.28 91 1003.4
20260831144804 41 62 4.0 8.0 0.18 0.27 0.27 91 1003.3
20260831144304 42 39 5.0 8.0 0.18 0.25 0.25 91 1003.4
20260831143804 42 49 5.0 12.0 0.20 0.24 0.24 91 1003.4
20260831143304 42 19 5.0 14.0 0.20 0.22 0.22 92 1003.5
20260831142805 42 45 5.0 7.0 0.20 0.20 0.20 91 1003.4
20260831142306 43 54 6.0 9.0 0.18 0.18 0.18 90 1003.5
20260831141804 43 14 4.0 14.0 0.16 0.16 0.16 91 1003.5
20260831141304 43 354 6.0 12.0 0.14 0.14 0.14 90 1003.5
20260831140804 43 37 3.0 12.0 0.13 0.13 0.13 89 1003.5
20260831140304 43 58 3.0 7.0 0.12 0.12 0.12 88 1003.5
20260831135804 44 137 3.0 10.0 0.11 0.11 0.11 88 1003.5
20260831135306 44 44 4.0 7.0 0.10 0.10 0.10 86 1003.3
20260831134804 44 58 4.0 10.0 0.09 0.09 0.09 86 1003.2
20260831134304 45 31 6.0 12.0 0.07 0.07 0.07 85 1003.0
20260831133804 46 340 6.0 15.0 0.04 0.04 0.04 83 1002.8
20260831133305 47 324 9.0 17.0 0.02 0.02 0.02 82 1002.8
20260831132804 49 329 11.0 26.0 0.00 0.00 0.00 81 1002.3
20260831132306 50 325 11.0 20.0 0.00 0.00 0.00 82 1002.2
20260831131804 51 266 0.0 3.0 0.00 0.00 0.00 82 1001.6
20260831131304 51 220 1.0 5.0 0.00 0.00 0.00 82 1001.3
20260831130804 51 240 3.0 7.0 0.00 0.00 0.00 82 1001.3
20260831130304 51 229 5.0 10.0 0.00 0.00 0.00 82 1001.4
20260831125805 51 227 5.0 9.0 0.00 0.00 0.00 82 1001.5
20260831125306 51 216 5.0 8.0 0.00 0.00 0.00 82 1001.6
20260831124804 50 224 3.0 6.0 0.00 0.00 0.00 82 1001.6
20260831124305 50 225 5.0 8.0 0.00 0.00 0.00 82 1001.7
20260831123804 50 221 5.0 8.0 0.00 0.00 0.00 82 1001.7
20260831123304 50 212 4.0 8.0 0.00 0.00 0.00 82 1001.7
20260831122803 50 210 4.0 8.0 0.00 0.00 0.00 82 1001.9
20260831122305 50 220 5.0 7.0 0.00 0.00 0.00 82 1001.9
20260831121804 50 219 3.0 6.0 0.00 0.00 0.00 82 1001.8
20260831121304 50 218 3.0 6.0 0.00 0.00 0.00 82 1001.9
20260831120803 50 219 3.0 5.0 0.00 0.00 0.00 82 1002.0
20260831120304 50 205 3.0 8.0 0.00 0.00 0.00 82 1002.0
20260831115804 50 195 4.0 6.0 0.00 0.00 0.00 83 1002.0
20260831115306 49 204 5.0 7.0 0.00 0.00 0.00 83 1002.2
20260831114804 49 206 3.0 7.0 0.00 0.00 0.00 83 1002.3
20260831114303 49 203 4.0 7.0 0.00 0.00 0.00 83 1002.3
20260831113804 49 209 5.0 9.0 0.00 0.00 0.00 83 1002.4
20260831113304 49 204 6.0 9.0 0.00 0.00 0.00 83 1002.4
20260831112804 49 198 5.0 8.0 0.00 0.00 0.00 83 1002.5
20260831112307 49 213 5.0 8.0 0.00 0.00 0.00 83 1002.5
20260831111804 49 210 6.0 9.0 0.00 0.00 0.00 83 1002.6
20260831111304 49 201 5.0 9.0 0.00 0.00 0.00 84 1002.5
20260831110804 49 186 5.0 8.0 0.00 0.00 0.00 84 1002.5
20260831110304 49 192 4.0 7.0 0.00 0.00 0.00 84 1002.7
20260831105804 49 201 5.0 8.0 0.00 0.00 0.00 84 1002.8
20260831105306 49 201 5.0 7.0 0.00 0.00 0.00 85 1002.9
20260831104804 48 198 5.0 8.0 0.00 0.00 0.00 85 1002.8
20260831104304 48 199 5.0 9.0 0.00 0.00 0.00 86 1002.9
20260831103804 48 195 5.0 7.0 0.00 0.00 0.00 86 1003.0
20260831103304 48 192 5.0 6.0 0.00 0.00 0.00 86 1003.1
20260831102804 48 186 3.0 6.0 0.00 0.00 0.00 86 1003.3
20260831102306 47 188 3.0 6.0 0.00 0.00 0.00 87 1003.3
20260831101804 47 183 3.0 5.0 0.00 0.00 0.00 87 1003.5
20260831101304 48 184 3.0 5.0 0.00 0.00 0.00 87 1003.5
20260831100804 48 210 3.0 5.0 0.00 0.00 0.00 87 1003.6
20260831100304 48 205 2.0 3.0 0.00 0.00 0.00 87 1003.7
20260831095804 48 209 3.0 5.0 0.00 0.00 0.00 87 1003.8
20260831095306 48 217 3.0 7.0 0.00 0.00 0.00 87 1003.8
20260831094804 48 211 3.0 5.0 0.00 0.00 0.00 87 1003.7
20260831094305 48 209 3.0 6.0 0.00 0.00 0.00 87 1003.6
20260831093804 48 194 4.0 6.0 0.00 0.00 0.00 88 1003.6
20260831093304 48 198 3.0 5.0 0.00 0.00 0.00 88 1003.6
20260831092804 48 191 2.0 5.0 0.00 0.00 0.00 88 1003.7
20260831092306 48 183 3.0 5.0 0.00 0.00 0.00 88 1003.7
20260831091804 48 191 2.0 3.0 0.00 0.00 0.00 89 1004.0
20260831091304 48 182 2.0 5.0 0.00 0.00 0.00 89 1004.1
20260831090804 48 176 3.0 5.0 0.00 0.00 0.00 89 1004.2
20260831090305 48 177 2.0 3.0 0.00 0.00 0.00 89 1004.4
20260831085804 48 206 0.0 0.0 0.00 0.00 0.00 89 1004.5
20260831085306 48 206 0.0 0.0 0.00 0.00 0.00 89 1004.6
20260831084804 49 206 0.0 0.0 0.00 0.00 0.00 89 1004.6
20260831084304 49 206 0.0 0.0 0.00 0.00 0.00 89 1004.7
20260831083804 49 206 0.0 0.0 0.00 0.00 0.00 88 1004.7
20260831083305 49 206 0.0 0.0 0.00 0.00 0.00 88 1004.8
20260831082804 49 193 1.0 2.0 0.00 0.00 0.00 88 1004.8
20260831082306 49 177 2.0 2.0 0.00 0.00 0.00 88 1004.8
20260831081804 49 168 1.0 2.0 0.00 0.00 0.00 88 1005.0
20260831081304 49 167 1.0 1.0 0.00 0.00 0.00 88 1005.1
20260831080804 49 166 1.0 2.0 0.00 0.00 0.00 88 1005.2
20260831080305 49 73 0.0 0.0 0.00 0.00 0.00 88 1005.3
20260831075804 49 73 0.0 0.0 0.00 0.00 0.00 88 1005.3
20260831075306 49 73 0.0 0.0 0.00 0.00 0.00 88 1005.3
20260831074304 49 73 0.0 0.0 0.00 0.00 0.00 88 1005.4
20260831073804 49 73 0.0 0.0 0.00 0.00 0.00 87 1005.5
20260831073304 49 73 0.0 0.0 0.00 0.00 0.00 87 1005.6
20260831072804 49 73 0.0 0.0 0.00 0.00 0.00 87 1005.6
20260831072306 49 73 0.0 0.0 0.00 0.00 0.00 87 1005.6
20260831071804 49 73 0.0 0.0 0.00 0.00 0.00 87 1005.6
20260831071305 49 73 0.0 0.0 0.00 0.00 0.00 87 1005.7
20260831070804 49 73 0.0 0.0 0.00 0.00 0.00 87 1005.8
20260831070304 49 73 0.0 0.0 0.00 0.00 0.00 87 1005.8
20260831065804 49 73 0.0 0.0 0.00 0.00 0.00 86 1005.8
20260831065306 49 73 0.0 0.0 0.00 0.00 0.00 86 1005.9
20260831064804 50 104 0.0 1.0 0.00 0.00 0.00 86 1005.8
20260831064304 50 121 1.0 2.0 0.00 0.00 0.00 86 1006.0
20260831063803 50 95 0.0 0.0 0.00 0.00 0.00 86 1006.1
20260831063304 50 95 0.0 0.0 0.00 0.00 0.00 85 1006.2
20260831062804 50 95 0.0 2.0 0.00 0.00 0.00 85 1006.3
20260831062306 50 164 2.0 2.0 0.00 0.00 0.00 85 1006.4
20260831061804 50 11 0.0 1.0 0.00 0.00 0.00 84 1006.5
20260831061304 50 32 0.0 1.0 0.00 0.00 0.00 84 1006.6
20260831060804 51 10 0.0 2.0 0.00 0.00 0.00 84 1006.7
20260831060304 51 8 0.0 0.0 0.00 0.00 0.00 83 1006.8
20260831055804 51 8 0.0 0.0 0.00 0.00 0.00 83 1006.8
20260831055306 51 8 0.0 0.0 0.00 0.00 0.00 83 1006.8
20260831054804 51 8 0.0 0.0 0.00 0.00 0.00 83 1006.9
20260831054304 51 8 0.0 3.0 0.00 0.00 0.00 82 1007.0
20260831053804 51 36 2.0 2.0 0.00 0.00 0.00 82 1007.0
20260831053304 51 109 0.0 1.0 0.00 0.00 0.00 82 1007.1
20260831052804 51 114 1.0 1.0 0.00 0.00 0.00 81 1007.2
20260831052307 52 17 0.0 1.0 0.00 0.00 0.00 81 1007.2
20260831051804 52 23 1.0 2.0 0.00 0.00 0.00 81 1007.2
20260831051304 52 76 1.0 2.0 0.00 0.00 0.00 80 1007.3
20260831050805 52 174 0.0 0.0 0.00 0.00 0.00 80 1007.3
20260831050304 52 76 1.0 5.0 0.00 0.00 0.00 80 1007.4
20260831045804 52 43 2.0 5.0 0.00 0.00 0.00 79 1007.4
20260831045306 52 38 0.0 2.0 0.00 0.00 0.00 79 1007.4
20260831044804 52 323 0.0 1.0 0.00 0.00 0.00 78 1007.4
20260831044305 52 322 1.0 2.0 0.00 0.00 0.00 78 1007.4
20260831043804 52 30 2.0 5.0 0.00 0.00 0.00 78 1007.3
20260831043304 53 34 2.0 5.0 0.00 0.00 0.00 78 1007.3
20260831042804 53 44 2.0 5.0 0.00 0.00 0.00 78 1007.4
20260831042307 53 73 0.0 0.0 0.00 0.00 0.00 77 1007.5
20260831041804 53 73 0.0 3.0 0.00 0.00 0.00 77 1007.5
20260831041304 53 5 0.0 2.0 0.00 0.00 0.00 76 1007.5
20260831040804 53 16 1.0 2.0 0.00 0.00 0.00 76 1007.5
20260831040304 53 13 0.0 2.0 0.00 0.00 0.00 76 1007.6
20260831035804 54 22 1.0 2.0 0.00 0.00 0.00 76 1007.6
20260831035306 54 322 0.0 0.0 0.00 0.00 0.00 76 1007.7
20260831034804 54 322 0.0 0.0 0.00 0.00 0.00 76 1007.6
20260831034304 54 322 1.0 3.0 0.00 0.00 0.00 75 1007.7
20260831033804 54 354 2.0 3.0 0.00 0.00 0.00 75 1007.8
20260831033304 54 356 2.0 2.0 0.00 0.00 0.00 75 1007.9
20260831032804 54 353 1.0 2.0 0.00 0.00 0.00 74 1008.0
20260831032306 54 335 0.0 0.0 0.00 0.00 0.00 74 1008.2
20260831031804 54 335 0.0 2.0 0.00 0.00 0.00 74 1008.3
20260831031304 55 2 2.0 2.0 0.00 0.00 0.00 74 1008.5
20260831030804 55 343 1.0 2.0 0.00 0.00 0.00 73 1008.6
20260831030304 55 358 1.0 2.0 0.00 0.00 0.00 73 1008.7
20260831025804 55 12 1.0 2.0 0.00 0.00 0.00 72 1008.8
20260831025306 56 25 1.0 2.0 0.00 0.00 0.00 71 1008.9
20260831024804 56 44 1.0 2.0 0.00 0.00 0.00 70 1009.0
20260831024304 56 140 0.0 1.0 0.00 0.00 0.00 69 1009.1